Kuiper-00050

operational
NORAD ID: 64510 Int'l Des: 2025-134 Owner: KUIP Country: US Constellation: kuiper
LEOCIRCULARSTARLINK_TYPE

关于 Kuiper-00050

正在加载描述...

实时位置

正在加载3D地球...

即将过境

高度历史

Altitude vs Time

uPlot chart will show altitude changes over time

两行轨道根数

1 64510U 25134L 25340.23371440 .00013501 00000-0 11944-2 0 9990
2 64510 51.8916 276.5506 0004866 18.1577 341.9565 14.96540912 26374
Epoch: Dec 6, 2025 • Age: 25 hours

当前状态

高度 580.1 km
速度 7.57 km/s
星下点 20.23°N, 96.13°W
发射日期 Jun 23, 2025
运行时间 0.4 years
类型 internet

技术详情

分类 Payload
质量 490.00 kg
干质量 490.00 kg
总质量 490.00 kg
长度 1.80 m
直径 0.70 m
跨度 5.00 m
形状 Box + 2 pan
制造商 KUIP
平台类型 Kuiper
阶段状态 In Orbit
所有者/国家 KUIP/US

大型星座

Loading constellations...